ARIANE 5 DEB, 43383

Orbit data source: Space-Track

ARIANE 5 DEB, 43383 is space debris in HEO originally from a launch on Thu, 12 Jun 2008 UTC launched from the French Guiana (FRGUI). Debris objects in space refer to the collection of defunct objects orbiting the Earth. Examples of debris include non-operational satellites, rocket bodies, and fragments generated from explosions, collisions, or faulty payload assembly.

Loading next visibility...
Identifier
43383, 2008-030F
Orbit
HEO
Country
Flag of FRFR
Related business
Manufacturer
Thales Alenia
Mission
Spacecraft
Bus & Motor
Unknown
Mass
Unknown
Launch date (UTC)
2008-06-12 (18 years ago)
Launch vehicle
Unknown
Launch site
French Guiana (FRGUI)
Object type
Payload
Rocket body
Debris
Shape & HBR
Unknown shape, 1.1 m
Radar Cross Section
Medium (>0.1 m² and <1 m²)

Expand to show TLE details & history
Last TLE update: 1 week ago

TLE from 1 week ago
0 ARIANE 5 DEB
1 43383U 08030F   25340.65430022 -.00003140  00000-0 -43534-1 0  9998
2 43383   2.1406  90.6803 6830138  95.0344 339.1700  2.63516387143503
Epoch: 2025-12-06T15:42Z
TLE epoch observation values (Epoch: 2025-12-06T15:42:11.539Z)
Latitude
0.00002°
Longitude
138.50219°
Altitude
6,369.904 km
Speed
6.673 km/s
True Right ascension
05h 58m 55s
True Declination
0° 00' 00"
Sunlit
Object was in full shadow at epoch
Visualization orbit readout
Latitude
Unknown
Longitude
Unknown
Altitude
Unknown
Speed
Unknown
Apparent Right ascension
Unknown
Apparent Declination
Unknown
Sunlit
N/A
Visualization observer readout
Local Sidereal Time
13:23:49
Azimuth
Unknown
Elevation
Unknown
Doppler factor
Unknown
Orbital elements
Apogee altitude
30,894.028 km
Perigee altitude
641.866 km
Semi-major axis
22,146.084 km
Eccentricity
0.68301
Inclination
2.1406°
RAAN
90.6803°
Arg. of periapsis
95.0344°
True anomaly
264.05485°
Mean anomaly
339.17°
Eccentric anomaly
308.57583°
Mean motion
0.65856 °/min
Orbital period
546.64 mins
BSTAR
-0.043534
Loading maneuver chart data...
Computing Atmospheric mass density...
Loading historical data...
Loading historical data...
Loading historical data...
Loading historical data...
Loading historical data...
Loading historical data...
Loading historical data...

Documentation

Showing up to 5 results
|